RH
52 65 69 67 63 58 60 65 65 61 74 67 65 61 61 71 69 80 82 98 76 54 72 100 86 95 100
54 55 61 71 62 66 73 71 93 95 82 87 79 78 78 86 72 64 91 66 80 77 91 90 81 100 96
74 90 97 81 94 86 78 74 99 100 99 83 74 89 99 90 70 73 73 82 74 81 81 86 100 97 92
100 100 98 97 83 82 84 96 100 100 99 99 100 96 97 69 72 98 94 83 88 88 68 100 96 91 89
100 94 72 82 71 72 81 100 100 100 100 100 73 68 71 98 96 84 65 92 77 92 100 94 96 87 98
86 97 94 100 97 100 100 100 93 89 73 92 100 100 100 89 79 87 81 82 100 100 100 98 100 86 86
100 100 93 91 100 100 99 93 97 100 100 100 95 100 100 97 73 82 99 100 100 100 100 100 89 91 57
100 100 100 100 90 100 100 100 100 100 87 96 100 92 77 84 98 100 100 99 100 100 85 75 73 52 48
100 100 95 100 100 100 100 100 100 100 100 100 100 100 100 100 100 92 91 89 82 62 60 56 46 49 56
100 100 100 100 100 98 100 100 100 100 100 100 100 98 96 89 75 68 60 46 45 49 39 44 46 50 56
99 100 100 100 100 100 100 94 100 100 100 90 88 88 73 62 54 45 45 39 46 36 40 40 46 44 62
100 100 100 98 100 100 100 100 100 100 94 84 62 55 44 37 47 47 39 43 40 42 48 46 46 58 66
100 100 100 100 100 100 100 100 82 78 73 59 43 44 45 49 54 44 48 49 44 55 48 47 56 70 72
90 100 84 68 64 75 73 50 37 31 37 46 36 48 44 43 41 43 52 43 53 55 60 56 65 64 66
50 49 38 33 30 55 50 35 33 41 43 46 49 52 46 43 40 52 48 59 64 63 73 69 65 69 62
36 35 32 34 35 49 59 53 49 57 55 53 57 52 47 50 47 50 62 72 67 65 62 70 79 64 64
39 42 41 38 41 55 54 51 50 70 63 55 47 43 48 54 50 58 72 72 63 64 69 82 74 70 64
Wind_Speed
70 70 67 67 68 66 65 67 68 71 70 67 68 70 68 68 70 70 75 74 77 93 93 95 97 100 103
71 70 70 70 70 69 68 67 71 69 71 71 73 66 69 69 73 80 74 83 86 93 97 97 98 100 109
71 70 72 70 71 70 71 74 71 73 72 74 71 71 73 75 81 79 84 86 97 100 101 100 103 108 108
73 73 73 73 75 74 74 73 76 76 72 69 72 77 78 84 86 80 89 99 103 101 100 102 112 111 114
76 75 75 72 75 73 74 75 72 71 72 76 80 82 83 85 85 92 98 102 99 98 99 111 109 116 115
76 75 71 70 70 71 72 71 76 77 81 78 80 81 84 87 95 95 99 98 94 100 113 111 111 120 118
84 82 81 77 70 75 74 76 76 79 80 86 87 89 91 94 98 96 88 98 108 108 109 112 118 116 121
83 78 72 75 80 78 79 81 81 82 88 90 92 99 96 88 87 94 101 102 105 109 117 119 115 118 119
83 82 80 82 83 80 83 79 82 87 87 85 88 90 94 97 101 104 103 106 109 117 115 114 115 116 113
85 89 85 88 89 91 87 92 94 96 102 106 108 108 110 109 109 104 105 114 116 117 120 112 113 108 109
96 94 94 102 96 100 102 104 107 108 110 110 112 110 106 109 111 112 104 114 113 120 115 112 108 112 108
106 103 106 107 108 108 108 109 107 107 108 109 110 109 113 116 114 116 118 117 116 116 109 107 109 110 114
111 111 109 109 109 108 106 104 107 106 109 111 110 108 111 115 113 118 116 113 116 106 110 107 105 104 105
115 111 106 106 107 109 108 108 113 113 113 112 114 113 113 118 121 120 112 117 108 106 105 104 102 107 110
113 111 112 112 113 113 114 114 115 116 116 117 117 118 120 120 122 113 117 107 100 100 95 100 104 104 111
116 114 114 115 115 116 116 118 117 119 120 119 124 120 122 116 115 114 106 99 100 94 96 95 102 108 113
118 117 119 119 120 120 122 122 123 124 126 125 121 118 111 112 110 105 96 96 92 95 93 96 102 107 112
Wind_Direction
264 267 269 273 274 278 281 284 286 290 292 294 296 297 299 301 304 307 306 305 310 319 319 317 317 317 320
261 265 269 272 274 279 282 285 286 288 292 293 295 295 298 301 304 308 306 309 310 317 315 316 316 314 321
264 265 267 272 274 278 281 283 285 288 288 292 297 296 299 303 304 308 308 308 315 314 314 313 313 317 320
261 265 267 272 279 281 284 286 287 290 292 294 295 296 297 304 307 304 309 311 311 312 313 310 318 318 321
265 267 273 273 280 281 280 282 284 288 293 292 293 300 303 302 305 306 311 308 310 309 308 315 316 318 322
266 265 269 270 273 275 275 280 283 284 289 293 296 298 299 303 305 307 306 306 304 307 315 314 317 318 321
265 265 270 271 271 272 278 281 285 289 293 294 295 296 300 301 302 305 300 301 307 309 312 315 316 320 319
263 266 263 266 273 276 277 279 286 287 291 291 292 295 300 299 298 298 303 308 309 311 314 315 318 318 319
260 265 271 264 272 271 276 273 276 279 289 289 289 294 298 299 304 304 307 308 310 311 315 316 319 318 315
252 264 264 264 265 272 272 273 273 279 282 287 295 299 303 304 306 309 307 309 311 314 315 318 316 316 314
256 258 262 265 271 268 273 277 279 284 288 290 294 302 302 306 305 308 308 312 312 312 315 314 316 314 314
259 263 265 267 270 274 276 280 283 287 292 296 298 300 302 303 305 306 309 310 313 313 314 315 316 315 314
261 264 266 270 273 275 278 282 286 289 292 293 295 299 300 302 305 305 307 310 312 312 313 315 315 313 313
262 263 267 270 272 274 276 282 284 287 290 293 296 297 298 301 304 303 307 309 310 313 313 314 312 313 314
261 264 266 270 273 273 276 280 283 286 288 290 292 295 297 297 300 303 304 307 309 310 310 310 312 312 313
261 265 268 269 271 273 276 278 282 284 287 287 290 293 292 295 298 301 303 306 307 308 309 310 312 313 314
261 264 265 267 269 272 274 277 281 283 285 287 289 290 292 292 297 298 302 303 306 308 309 310 313 313 314